Mosinee, WI

5:53 PM CST on January 23, 2017 (GMT -0600)
Central Wisconsin

Weather History for KCWA - June, 2013

Change the Weather History Date:

Friday, June 14, 2013

  Actual Average Record
Temperature  
Mean Temperature 62 °F -  
Max Temperature 73 °F 71 °F 84 °F (2007)
Min Temperature 50 °F 51 °F 42 °F (1999)
Degree Days  
Heating Degree Days 4    
Growing Degree Days 12 (Base 50)    
Moisture  
Dew Point 50 °F    
Average Humidity 74    
Maximum Humidity 94    
Minimum Humidity 38    
Precipitation  
Precipitation 0.00 in - - ()
Sea Level Pressure  
Sea Level Pressure 30.10 in    
Wind  
Wind Speed 5 mph (East)    
Max Wind Speed 10 mph    
Max Gust Speed 16 mph    
Visibility 10 miles    
Events      
Averages and records for this station are not official NWS values.
T = Trace of Precipitation, MM = Missing Value Source: NWS Daily Summary

Daily Weather History Graph

Daily Weather History Graph

Search for Another Location

Airport or City:

Trip Planner

Search our weather history database for the weather conditions in past years. The results will help you decide how hot, cold, wet, or windy it might be!

Date:

Astronomy

Jun. 14, 2013 Rise Set
Actual Time 5:12 AM CDT 8:46 PM CDT
Civil Twilight 4:35 AM CDT 9:23 PM CDT
Nautical Twilight 3:46 AM CDT 10:12 PM CDT
Astronomical Twilight 2:41 AM CDT 11:16 PM CDT
Moon 10:59 AM CDT (6/14) No Moon Set
Length of Visible Light 16h 48m
Length of Day
15h 33m
Waxing Crescent, 30% of the Moon is Illuminated
Jun 14
Waxing Crescent
Jun 16
First Quarter
Jun 23
Full
Jun 29
Last Quarter
Jul 8
New

Hourly Weather History & Observations

Time (CDT) Temp. Dew Point Humidity Pressure Visibility Wind Dir Wind Speed Gust Speed Precip Events Conditions
12:15 AM 55.4 °F 50.0 °F 82% 30.13 in 10.0 mi NE 4.6 mph - N/A   Clear
12:35 AM 53.6 °F 50.0 °F 88% 30.13 in 10.0 mi ENE 5.8 mph - N/A   Clear
12:55 AM 53.6 °F 50.0 °F 88% 30.13 in 10.0 mi NE 6.9 mph - N/A   Clear
1:15 AM 53.6 °F 51.8 °F 94% 30.14 in 10.0 mi NE 6.9 mph - N/A   Clear
1:35 AM 53.6 °F 51.8 °F 94% 30.13 in 10.0 mi NE 6.9 mph - N/A   Clear
1:55 AM 53.6 °F 51.8 °F 94% 30.13 in 10.0 mi NE 5.8 mph - N/A   Clear
2:15 AM 53.6 °F 50.0 °F 88% 30.14 in 10.0 mi Calm Calm - N/A   Clear
2:35 AM 53.6 °F 50.0 °F 88% 30.14 in 10.0 mi Calm Calm - N/A   Clear
2:55 AM 51.8 °F 50.0 °F 94% 30.14 in 10.0 mi NNE 3.5 mph - N/A   Clear
3:15 AM 51.8 °F 50.0 °F 94% 30.14 in 10.0 mi NNE 4.6 mph - N/A   Clear
3:35 AM 51.8 °F 50.0 °F 94% 30.14 in 10.0 mi NNE 3.5 mph - N/A   Clear
3:55 AM 51.8 °F 50.0 °F 94% 30.14 in 10.0 mi NE 4.6 mph - N/A   Clear
4:15 AM 51.8 °F 50.0 °F 94% 30.15 in 10.0 mi NNE 3.5 mph - N/A   Clear
4:35 AM 51.8 °F 48.2 °F 88% 30.14 in 10.0 mi NNE 3.5 mph - N/A   Clear
4:55 AM 50.0 °F 48.2 °F 94% 30.14 in 10.0 mi NNE 4.6 mph - N/A   Clear
5:15 AM 50.0 °F 48.2 °F 94% 30.14 in 7.0 mi NE 4.6 mph - N/A   Clear
5:35 AM 50.0 °F 46.4 °F 87% 30.15 in 7.0 mi NE 4.6 mph - N/A   Clear
5:45 AM 51.8 °F 48.2 °F 88% 30.15 in 10.0 mi NNE 4.6 mph - N/A   Clear
6:45 AM 53.6 °F 48.2 °F 82% 30.15 in 10.0 mi ENE 9.2 mph - N/A   Clear
7:45 AM 57.2 °F 48.2 °F 72% 30.15 in 10.0 mi East 10.4 mph - N/A   Clear
8:52 AM 60.8 °F 48.2 °F 63% 30.17 in 10.0 mi SSE 4.6 mph - N/A   Clear
9:45 AM 64.4 °F 48.2 °F 56% 30.16 in 10.0 mi SE 6.9 mph - N/A   Clear
10:45 AM 68.0 °F 48.2 °F 49% 30.16 in 10.0 mi SE 5.8 mph - N/A   Clear
11:45 AM 69.8 °F 46.4 °F 43% 30.15 in 10.0 mi SSE 8.1 mph - N/A   Clear
12:45 PM 71.6 °F 48.2 °F 43% 30.12 in 10.0 mi SSE 5.8 mph - N/A   Clear
1:45 PM 71.6 °F 46.4 °F 41% 30.12 in 10.0 mi SSE 6.9 mph - N/A   Clear
2:45 PM 73.4 °F 46.4 °F 38% 30.11 in 10.0 mi Calm Calm - N/A   Clear
3:45 PM 73.4 °F 50.0 °F 44% 30.07 in 10.0 mi South 9.2 mph - N/A   Clear
4:45 PM 73.4 °F 50.0 °F 44% 30.04 in 10.0 mi South 9.2 mph 16.1 mph N/A   Clear
5:45 PM 71.6 °F 50.0 °F 46% 30.02 in 10.0 mi South 9.2 mph - N/A   Clear
6:45 PM 73.4 °F 51.8 °F 47% 30.03 in 10.0 mi South 5.8 mph - N/A   Scattered Clouds
7:45 PM 69.8 °F 53.6 °F 56% 30.04 in 10.0 mi Calm Calm - N/A   Clear
8:45 PM 66.2 °F 53.6 °F 64% 30.03 in 10.0 mi ESE 3.5 mph - N/A   Scattered Clouds
9:45 PM 62.6 °F 53.6 °F 72% 30.02 in 10.0 mi East 4.6 mph - N/A   Mostly Cloudy
10:15 PM 62.6 °F 53.6 °F 72% 30.01 in 10.0 mi East 6.9 mph - N/A   Scattered Clouds
10:35 PM 62.6 °F 53.6 °F 72% 30.03 in 10.0 mi East 4.6 mph - N/A   Scattered Clouds
10:55 PM 60.8 °F 53.6 °F 77% 30.04 in 10.0 mi East 3.5 mph - N/A   Clear
11:15 PM 60.8 °F 53.6 °F 77% 30.02 in 10.0 mi ESE 4.6 mph - N/A   Scattered Clouds
11:35 PM 60.8 °F 55.4 °F 82% 30.01 in 10.0 mi ESE 4.6 mph - N/A   Scattered Clouds
11:55 PM 60.8 °F 55.4 °F 82% 30.01 in 10.0 mi East 5.8 mph - N/A   Clear